Satellite-Ground Cal/Val Region Overpasses Predictions

Prediction of Satellite NPP Overpassing Cal/Val Region: PacNW

Region Location: (Latitude: 10.00, Longitude: 139.50) to (Latitude: 22.70, Longitude: 165.60).

Table of predicted overpasses for the next 14.0 days since TLE Epoch: 2/12/2023
Interval Starting Time Starting Location Ending Time Ending Location
1 02/12/2023 02:53:39 ( 10.05, 156.74) 02/12/2023 02:57:14 ( 22.67, 153.73)
2 02/12/2023 15:25:31 ( 22.67, 153.99) 02/12/2023 15:29:06 ( 10.05, 150.98)
3 02/13/2023 02:34:36 ( 10.02, 161.51) 02/13/2023 02:38:12 ( 22.70, 158.48)
4 02/13/2023 15:06:29 ( 22.70, 158.76) 02/13/2023 15:10:05 ( 10.02, 155.74)
5 02/14/2023 02:16:24 ( 12.92, 165.60) 02/14/2023 02:19:10 ( 22.67, 163.25)
6 02/14/2023 03:57:05 ( 10.05, 140.88) 02/14/2023 03:58:46 ( 15.98, 139.50)
7 02/14/2023 14:47:28 ( 22.67, 163.52) 02/14/2023 14:51:03 ( 10.05, 160.51)
8 02/15/2023 03:38:02 ( 10.02, 145.65) 02/15/2023 03:41:37 ( 22.64, 142.64)
9 02/15/2023 14:31:37 ( 11.43, 165.59) 02/15/2023 14:32:01 ( 10.02, 165.26)
10 02/15/2023 16:09:55 ( 22.70, 142.91) 02/15/2023 16:13:31 ( 10.02, 139.89)
11 02/16/2023 03:19:01 ( 10.05, 150.41) 02/16/2023 03:22:36 ( 22.67, 147.40)
12 02/16/2023 15:50:54 ( 22.66, 147.66) 02/16/2023 15:54:29 ( 10.05, 144.66)
13 02/17/2023 02:59:58 ( 10.03, 155.17) 02/17/2023 03:03:33 ( 22.65, 152.17)
14 02/17/2023 15:31:51 ( 22.69, 152.43) 02/17/2023 15:35:27 ( 10.01, 149.41)
15 02/18/2023 02:40:56 ( 10.00, 159.94) 02/18/2023 02:44:32 ( 22.68, 156.92)
16 02/18/2023 15:12:50 ( 22.65, 157.18) 02/18/2023 15:16:25 ( 10.04, 154.18)
17 02/19/2023 02:21:54 ( 10.04, 164.69) 02/19/2023 02:25:29 ( 22.66, 161.69)
18 02/19/2023 14:53:47 ( 22.67, 161.95) 02/19/2023 14:57:22 ( 10.06, 158.94)
19 02/20/2023 03:44:22 ( 10.03, 144.09) 02/20/2023 03:47:57 ( 22.65, 141.08)
20 02/20/2023 14:36:03 ( 18.12, 165.59) 02/20/2023 14:38:21 ( 10.02, 163.70)
21 02/20/2023 16:16:15 ( 22.69, 141.34) 02/20/2023 16:18:24 ( 15.12, 139.51)
22 02/21/2023 03:25:19 ( 10.01, 148.85) 02/21/2023 03:28:55 ( 22.69, 145.83)
23 02/21/2023 15:57:13 ( 22.64, 146.09) 02/21/2023 16:00:48 ( 10.03, 143.09)
24 02/22/2023 03:06:18 ( 10.05, 153.60) 02/22/2023 03:09:53 ( 22.68, 150.59)
25 02/22/2023 15:38:11 ( 22.66, 150.86) 02/22/2023 15:41:46 ( 10.04, 147.85)
26 02/23/2023 02:47:16 ( 10.04, 158.37) 02/23/2023 02:50:51 ( 22.66, 155.36)
27 02/23/2023 15:19:08 ( 22.67, 155.63) 02/23/2023 15:22:43 ( 10.05, 152.62)
28 02/24/2023 02:28:13 ( 10.03, 163.13) 02/24/2023 02:31:48 ( 22.65, 160.12)
29 02/24/2023 15:00:06 ( 22.68, 160.39) 02/24/2023 15:03:42 ( 10.00, 157.37)
30 02/25/2023 02:11:58 ( 19.83, 165.59) 02/25/2023 02:12:46 ( 22.64, 164.89)
31 02/25/2023 03:50:41 ( 10.03, 142.52) 02/25/2023 03:54:16 ( 22.65, 139.51)
32 02/25/2023 14:41:03 ( 22.69, 165.16) 02/25/2023 14:44:39 ( 10.01, 162.13)
